Voltar ao catálogo

STARLINK-1871

AtivoComunicaçõesVLEO
NORAD 47157·PAYLOAD·🇺🇸 United States

Lançado Nov 25, 2020 de Cape Canaveral Space Force Station

Loading…

Próximas Passagens (próximas 24 horas)

TLE

AtualizadoSource: CelesTrak SupGP

Época: Sep 15, 2026, 01:45 UTC

1 47157C 20088AM  26258.07340278  .00073112  00000+0  15167-2 0  2589
2 47157  53.1516 127.9640 0001883 126.0495  14.8837 15.45087010    16

Acompanhe STARLINK-1871 em tempo real com AllMySat

Download on the App Store